Satellite: NOAA-19
Catalog number: 33591
Epoch time:      09106.40335472
Element set:      70
Inclination:      098.7427 deg
RA of node:       053.7872 deg
Eccentricity:    0.0015020
Arg of perigee:   060.5277 deg
Mean anomaly:     299.7389 deg
Mean motion:   14.10951382 rev/day
Decay rate:       4.26e-06 rev/day^2
Epoch rev:             972
Checksum:              307

/EX
SB KEPS @ AMSAT  $ORB09106.M
Orbital Elements  09106.MISC

HR AMSAT ORBITAL ELEMENTS FOR MANNED AND MISCELLANEOUS SATELLITES
FROM WA5QGD FORT WORTH,TX April 16, 2009
Send Subscribe/unsubscribe to KEPS at 
http://www.amsat.org/mailman/listinfo/keps
BID: ORB09106.M
TO ALL RADIO AMATEURS BT

Satellite: HUBBLE
Catalog number: 20580
Epoch time:      09105.46330828
Element set:    0369
Inclination:      028.4690 deg
RA of node:       151.5765 deg
Eccentricity:    0.0003544
Arg of perigee:   000.6279 deg
Mean anomaly:     359.4353 deg
Mean motion:   15.00475449 rev/day
Decay rate:       4.41e-06 rev/day^2
Epoch rev:           84042
Checksum:              288

Satellite: PO-34
Catalog number: 25520
Epoch time:      09106.95500854
Element set:     227
Inclination:      028.4598 deg
RA of node:       304.8934 deg
Eccentricity:    0.0004906
Arg of perigee:   355.6800 deg
Mean anomaly:     004.3754 deg
Mean motion:   15.17323279 rev/day
Decay rate:       4.42e-06 rev/day^2
Epoch rev:           57934
Checksum:              308

Satellite: ISS
Catalog number: 25544
Epoch time:      09106.49981230
Element set:     684
Inclination:      051.6407 deg
RA of node:       263.1420 deg
Eccentricity:    0.0008692
Arg of perigee:   245.9646 deg
Mean anomaly:     235.8437 deg
Mean motion:   15.72185824 rev/day
Decay rate:     1.0049e-04 rev/day^2
Epoch rev:           59624
Checksum:              314

Satellite: CO-58
Catalog number: 28895
Epoch time:      09106.71630196
Element set:     278
Inclination:      098.0665 deg
RA of node:       359.0309 deg
Eccentricity:    0.0017924
Arg of perigee:   176.6637 deg
Mean anomaly:     183.4712 deg
Mean motion:   14.59758955 rev/day
Decay rate:       1.65e-06 rev/day^2
Epoch rev:           18476
Checksum:              365

Satellite: FALCON
Catalog number: 30776
Epoch time:      09105.46748978
Element set:     547
Inclination:      035.4324 deg
RA of node:       119.9321 deg
Eccentricity:    0.0000695
Arg of perigee:   061.0045 deg
Mean anomaly:     299.0740 deg
Mean motion:   15.03213903 rev/day
Decay rate:       3.79e-06 rev/day^2
Epoch rev:           11565
Checksum:              294

Satellite: MAST
Catalog number: 31126
Epoch time:      09105.66530548
Element set:     571
Inclination:      097.9936 deg
RA of node:       163.3159 deg
Eccentricity:    0.0095600
Arg of perigee:   113.6162 deg
Mean anomaly:     247.5134 deg
Mean motion:   14.53489655 rev/day
Decay rate:       1.39e-06 rev/day^2
Epoch rev:           10595
Checksum:              307

Satellite: CAPE1
Catalog number: 31130
Epoch time:      09105.64226542
Element set:    0579
Inclination:      097.9967 deg
RA of node:       161.6176 deg
Eccentricity:    0.0104002
Arg of perigee:   118.8214 deg
Mean anomaly:     242.3458 deg
Mean motion:   14.52049720 rev/day
Decay rate:       1.17e-06 rev/day^2
Epoch rev:           10561
Checksum:              276

Satellite: COMPASS
Catalog number: 32787
Epoch time:      09104.34795463
Element set:    0333
Inclination:      097.9481 deg
RA of node:       168.6963 deg
Eccentricity:    0.0014840
Arg of perigee:   237.2859 deg
Mean anomaly:     122.6926 deg
Mean motion:   14.81578888 rev/day
Decay rate:       5.16e-06 rev/day^2
Epoch rev:           05199
Checksum:              352

Satellite: AAUSAT2
Catalog number: 32788
Epoch time:      09106.88728749
Element set:     333
Inclination:      097.9489 deg
RA of node:       171.2664 deg
Eccentricity:    0.0014366
Arg of perigee:   229.2033 deg
Mean anomaly:     130.7916 deg
Mean motion:   14.81701313 rev/day
Decay rate:       3.94e-06 rev/day^2
Epoch rev:            5237
Checksum:              320

Satellite: DO-64
Catalog number: 32789
Epoch time:      09105.75990070
Element set:    0348
Inclination:      097.9516 deg
RA of node:       170.2702 deg
Eccentricity:    0.0014727
Arg of perigee:   232.2165 deg
Mean anomaly:     127.7713 deg
Mean motion:   14.81666098 rev/day
Decay rate:       6.13e-06 rev/day^2
Epoch rev:           05220
Checksum:              310

Satellite: CO-66
Catalog number: 32791
Epoch time:      09106.68006150
Element set:     324
Inclination:      097.9474 deg
RA of node:       171.0402 deg
Eccentricity:    0.0014975
Arg of perigee:   229.9292 deg
Mean anomaly:     130.0620 deg
Mean motion:   14.81414546 rev/day
Decay rate:       2.98e-06 rev/day^2
Epoch rev:            5230
Checksum:              290

Satellite: RS-30
Catalog number: 32953
Epoch time:      09106.61513672
Element set:     281
Inclination:      082.4976 deg
RA of node:       294.9087 deg
Eccentricity:    0.0018533
Arg of perigee:   315.3842 deg
Mean anomaly:     044.5744 deg
Mean motion:   12.43000373 rev/day
Decay rate:        1.0e-07 rev/day^2
Epoch rev:            4074
Checksum:              282

/EX



_______________________________________________
Via the Keps mailing list courtesy of AMSAT-NA
http://amsat.org/mailman/listinfo/keps

--- ViaMAIL!/WC v1.60d
 * Origin: Chowdanet (401-724-4410) telnet://chowdanet.com  (1:323/120)